Regional Weather Roundup
Issued by NWS

Home | Current Version | Previous Version | Text Only | Print | Product List | Glossary Off
Versions: 1 2 3 4 5 6 7 8 9 10 11 12 13 14 15 16 17 18 19 20 21 22 23 24 25 26 27

000
ASUS45 KBOI 220810
RWRID

IDAHO REGIONAL WEATHER ROUNDUP
NATIONAL WEATHER SERVICE BOISE ID
200 AM MDT WED MAR 22 2017

NOTE: "FAIR" INDICATES FEW OR NO CLOUDS BELOW 12000 FEET
WITH NO SIGNIFICANT WEATHER AND/OR OBSTRUCTIONS TO VISIBILITY

IDZ012-014-220900-
SOUTHWEST IDAHO


CITY           SKY/WX    TMP DP  RH WIND       PRES   REMARKS
BOISE          PTCLDY    45  39  79 SE9       29.91R
CALDWELL       PTCLDY    45  40  82 SE7       29.91R
MOUNTAIN HOME  PTCLDY    43  43 100 SE5       29.91F
$$

IDZ016-017-220900-
SOUTHCENTRAL IDAHO


CITY           SKY/WX    TMP DP  RH WIND       PRES   REMARKS
BURLEY         CLOUDY    46  43  89 S8        29.92F
JEROME         PTCLDY    45  43  93 SE9       29.95R
TWIN FALLS     MOCLDY    43  41  93 S12       29.93S
$$

IDZ019>023-220900-
SOUTHEAST IDAHO


CITY           SKY/WX    TMP DP  RH WIND       PRES   REMARKS
IDAHO FALLS    CLOUDY    46  43  89 S17       29.93F
POCATELLO      CLOUDY    47  44  90 S7        29.95F
REXBURG        CLOUDY    45  43  93 S15G23    29.91S
$$

IDZ006-010-011-018-031-032-220900-
CENTRAL IDAHO MOUNTAINS


CITY           SKY/WX    TMP DP  RH WIND       PRES   REMARKS
MCCALL         MOCLDY    32  30  92 N5        29.89R FOG     WCI  27
HAILEY         PTCLDY    37  37 100 N5        29.94R WCI  34
STANLEY          N/A     33  32  96 NW6       29.92F WCI  28
SALMON         PTCLDY    48  30  49 S3        29.83F
CHALLIS        PTCLDY    41  37  86 S6        29.87F
$$

IDZ002-004-006-007-026-220900-
NORTHERN IDAHO


CITY           SKY/WX    TMP DP  RH WIND       PRES   REMARKS
LEWISTON       PTCLDY    42  41  96 CALM      29.83S FOG
LOWELL           N/A     42  40  92 N5        29.88R
COEUR D`ALENE  CLOUDY    43  43 100 SW7       29.82R
MULLAN PASS    FOG       33  33 100 CALM      29.78S VSB 1/4
$$




USA.gov is the U.S. government's official web portal to all federal, state and local government web resources and services.